DW5595 Weather Reports


Display with metric or nautical units.
time (UTC)temp
F
wind
direction
speed
MPH
gust
MPH
rain 1hr
in
rain 24hr
in
rain mn
in
humidity
%
barometer
mb
20260906203033 70 246 0.0 0.0 0.01 0.39 0.39 95 1014.1
20260906201532 69 246 0.0 1.0 0.02 0.39 0.39 95 1013.6
20260906200033 69 333 0.0 2.0 0.08 0.39 0.39 94 1013.1
20260906194529 69 325 0.0 6.0 0.37 0.39 0.39 94 1013.5
20260906193028 68 148 0.0 1.0 0.36 0.38 0.38 94 1013.4
20260906191526 69 148 0.0 0.0 0.35 0.37 0.37 92 1013.8
20260906190023 70 204 0.0 1.0 0.29 0.31 0.31 87 1014.2
20260906184527 79 10 9.0 20.0 0.00 0.02 0.02 73 1014.5
20260906183039 82 340 0.0 5.0 0.00 0.02 0.02 69 1013.6
20260906181541 83 5 0.0 5.0 0.00 0.02 0.02 65 1013.6
20260906180029 83 18 4.0 10.0 0.00 0.05 0.02 64 1013.6
20260906174530 82 175 0.0 8.0 0.00 0.05 0.02 68 1013.8
20260906173026 82 352 3.0 9.0 0.00 0.05 0.02 69 1013.6
20260906171520 82 63 1.0 3.0 0.00 0.05 0.02 69 1013.7
20260906170016 82 154 0.0 4.0 0.00 0.05 0.02 71 1013.9
20260906164539 81 35 0.0 5.0 0.00 0.05 0.02 69 1014.0
20260906163035 81 29 0.0 4.0 0.00 0.05 0.02 70 1014.2
20260906161508 79 350 1.0 3.0 0.00 0.05 0.02 75 1014.2
20260906160003 77 9 0.0 4.0 0.01 0.05 0.02 80 1014.6
20260906154505 75 290 0.0 0.0 0.01 0.05 0.02 88 1014.7
20260906153038 74 251 0.0 0.0 0.01 0.05 0.02 90 1014.9
20260906151520 74 290 1.0 6.0 0.02 0.05 0.02 93 1014.8
20260906150015 73 222 0.0 0.0 0.01 0.04 0.01 94 1014.9
20260906144514 73 350 0.0 0.0 0.01 0.04 0.01 92 1015.3
20260906143012 73 90 0.0 11.0 0.01 0.04 0.01 92 1015.1
20260906141519 73 5 5.0 9.0 0.00 0.03 0.00 91 1015.5
20260906140029 73 14 0.0 2.0 0.00 0.03 0.00 90 1014.7
20260906134527 74 213 0.0 4.0 0.00 0.03 0.00 90 1014.5
20260906133018 74 22 2.0 7.0 0.00 0.03 0.00 90 1014.4
20260906131520 73 34 0.0 2.0 0.00 0.03 0.00 91 1014.3
20260906130016 71 10 0.0 2.0 0.00 0.03 0.00 95 1014.2
20260906124510 70 123 0.0 0.0 0.00 0.03 0.00 96 1013.8
20260906123008 69 123 0.0 1.0 0.00 0.03 0.00 97 1013.9
20260906121505 68 123 0.0 0.0 0.00 0.03 0.00 97 1013.4
20260906120025 67 123 0.0 0.0 0.00 0.03 0.00 97 1013.1
20260906114532 67 131 0.0 0.0 0.00 0.03 0.00 96 1013.1
20260906113018 67 131 0.0 0.0 0.00 0.03 0.00 97 1013.0
20260906111519 66 131 0.0 3.0 0.00 0.03 0.00 96 1013.0
20260906110012 67 239 0.0 0.0 0.00 0.03 0.00 96 1012.9
20260906104512 67 278 0.0 0.0 0.00 0.03 0.00 96 1012.7
20260906103042 67 278 0.0 0.0 0.00 0.03 0.00 96 1012.7
20260906101529 67 277 0.0 0.0 0.00 0.03 0.00 96 1012.5
20260906100029 67 157 0.0 0.0 0.00 0.03 0.00 96 1012.5
20260906094523 67 157 0.0 0.0 0.00 0.03 0.00 96 1012.6
20260906093019 67 157 0.0 0.0 0.00 0.03 0.00 96 1012.4
20260906091517 67 157 0.0 0.0 0.00 0.03 0.00 96 1012.2
20260906090012 67 157 0.0 0.0 0.00 0.03 0.00 96 1012.0
20260906084530 67 163 0.0 0.0 0.00 0.03 0.00 96 1011.7
20260906083037 68 163 0.0 0.0 0.00 0.03 0.00 96 1011.8
20260906081527 68 169 0.0 0.0 0.00 0.03 0.00 96 1011.9
20260906080028 68 180 0.0 0.0 0.00 0.03 0.00 96 1011.9
20260906074518 68 180 0.0 0.0 0.00 0.03 0.00 96 1011.9
20260906073017 68 180 0.0 0.0 0.00 0.03 0.00 96 1011.7
20260906071513 68 180 0.0 2.0 0.00 0.03 0.00 96 1011.7
20260906070032 68 180 0.0 0.0 0.00 0.03 0.00 96 1011.7
20260906064534 68 180 0.0 0.0 0.00 0.03 0.00 96 1011.8
20260906063031 68 180 0.0 0.0 0.00 0.03 0.00 96 1012.3
20260906061529 68 180 0.0 1.0 0.00 0.03 0.00 96 1012.4
20260906060023 69 180 0.0 0.0 0.00 0.03 0.00 96 1012.5
20260906054528 69 154 0.0 0.0 0.00 0.03 0.00 96 1012.6
20260906053036 69 92 0.0 2.0 0.00 0.03 0.00 95 1012.6
20260906051531 69 153 0.0 0.0 0.00 0.03 0.00 96 1012.9
20260906050007 69 153 0.0 0.0 0.00 0.03 0.00 95 1013.1
20260906044508 69 153 0.0 0.0 0.00 0.03 0.00 95 1013.2
20260906043008 69 153 0.0 0.0 0.00 0.03 0.00 95 1013.0
20260906041504 69 153 0.0 0.0 0.00 0.03 0.00 95 1013.3
20260906040023 70 153 0.0 0.0 0.00 0.03 0.00 95 1013.5
20260906034517 70 153 0.0 0.0 0.00 0.03 0.03 95 1013.4
20260906033013 70 153 0.0 0.0 0.00 0.03 0.03 95 1013.4
20260906031510 70 153 0.0 0.0 0.00 0.03 0.03 95 1013.3
20260906030006 70 153 0.0 0.0 0.00 0.03 0.03 95 1013.4
20260906024503 71 153 0.0 0.0 0.00 0.03 0.03 94 1013.2
20260906023025 71 153 0.0 0.0 0.00 0.03 0.03 94 1013.0
20260906021535 71 167 0.0 0.0 0.00 0.03 0.03 94 1013.0
20260906020020 72 167 0.0 0.0 0.00 0.03 0.03 94 1013.1
20260906014519 72 167 0.0 0.0 0.00 0.03 0.03 94 1013.0
20260906013026 73 167 0.0 0.0 0.00 0.03 0.03 93 1012.8
20260906011510 73 167 0.0 0.0 0.00 0.03 0.03 92 1012.6
20260906010004 74 167 0.0 0.0 0.00 0.03 0.03 92 1012.4
20260906004527 74 167 0.0 0.0 0.00 0.03 0.03 91 1012.3
20260906003025 75 167 0.0 0.0 0.00 0.03 0.03 90 1012.3
20260906001521 76 167 0.0 0.0 0.00 0.03 0.03 89 1012.1
20260906000022 77 167 0.0 0.0 0.00 0.03 0.03 87 1011.9
20260905234512 78 167 0.0 1.0 0.00 0.03 0.03 87 1011.8
20260905233017 79 142 0.0 0.0 0.00 0.03 0.03 83 1011.7
20260905231506 79 142 0.0 0.0 0.00 0.03 0.03 81 1011.6
20260905230029 80 142 0.0 1.0 0.00 0.03 0.03 78 1011.7
20260905224533 81 360 0.0 0.0 0.00 0.03 0.03 76 1011.5
20260905223033 82 360 0.0 0.0 0.00 0.03 0.03 74 1011.6
20260905221517 83 360 0.0 1.0 0.00 0.03 0.03 72 1011.6
20260905220012 83 5 0.0 3.0 0.00 0.03 0.03 70 1011.6
20260905214510 82 11 0.0 2.0 0.00 0.03 0.03 75 1012.0
20260905213008 81 15 1.0 3.0 0.00 0.03 0.03 75 1012.4
20260905211541 80 23 1.0 3.0 0.00 0.03 0.03 77 1012.1
20260905210029 78 20 0.0 2.0 0.00 0.03 0.03 83 1012.1
20260905204524 76 313 0.0 2.0 0.00 0.03 0.03 84 1012.3